Погода в Лазареве

Россия / Хабаровский край     52°12′37″N   141°30′32″E
темп.,
°C
ветер,
м/с
пор.,
м/с
влажн.,
%
обл.,
%
осадки,
мм/ч
давл.,
гПа
погр.,
м
15 мая, сб
сб1501:00+1ю469996 0.0 101468
04:00+1ю469998 0.1 1014113
07:00+1ю5899100 0.0 1014151
10:00+2ю71498100 0.1 1012273
13:00+3ю71397100 0.0 1009214
16:00+3ю91896100 0.0 1005298
19:00+4ю142797100 2.0 1002596
22:00+4ю132495100 8.7 997496
16 мая, вс
вс1601:00+3ю12199897 5.9 994337
04:00+2ю101698100 6.0 993279
07:00+2ю81398100 0.1 992236
10:00+2ююз6898100 3.5 991165
13:00+5юз4687100 1.1 991321
16:00+5зсз6976100 1.5 994306
19:00+4зсз577312 0.0 996205
22:00+2з46845 0.0 99865
17 мая, пн
пн1701:00+1юз44844 0.0 99819
04:00+1зюз33855 0.0 99912
07:00+3з238385 0.0 99971
10:00+2в239078 0.0 1000141
13:00+2ююв248965 0.0 999164
16:00+2ю589252 0.0 998129
19:00+3ю6109397 0.0 997121
22:00+2ююз589620 0.0 996109
18 мая, вт
вт1801:00+3ююз339281 0.0 99632
04:00+4юз338636 0.0 99810
07:00+5зюз34785 0.0 99947
10:00+3с468878 0.0 1002279
13:00+1с2395100 0.4 100276
16:00+1с4696100 1.0 1002110
19:00+1ссз4597100 0.7 100287
22:00+1зсз1199100 6.8 100141
19 мая, ср
ср1901:00+2с1198100 1.7 100031
04:00+1сз4599100 1.8 100096
07:00+1ссз3498100 0.1 100277
10:00+1ссв3598100 0.1 1003104
13:00+1ссв339695 0.0 100591
16:00+2с469576 0.0 1006101
19:00+1ссз239677 0.0 100851
22:000з229652 0.0 101112